GFSMA_sfc_thetae_000.txt.gz
Theta_e
314 314 312 312 312 313 312 311 311 311 310 310 310 310 310 310 309 309 309 316 320 321 324 327 327 329 332 332 332 332 332 330 330 330 332 333 333 332 332 332 333 333 332
314 313 310 309 308 309 309 309 309 308 307 307 306 307 307 307 307 308 309 308 315 316 319 322 325 327 328 330 331 330 331 331 331 329 330 331 332 332 331 331 331 331 333
310 307 306 305 305 306 306 305 305 303 302 302 302 303 303 304 304 308 308 308 308 312 315 316 318 320 321 324 326 329 330 330 330 330 329 329 330 330 330 330 330 331 331
306 304 305 304 304 303 301 302 302 299 300 299 298 299 299 302 302 307 306 306 305 304 306 311 312 313 316 319 321 322 324 327 329 330 329 329 329 329 329 329 329 329 330
305 303 303 303 301 300 299 299 299 299 298 298 299 299 298 299 301 306 304 303 303 302 302 305 307 307 309 310 313 317 320 323 325 328 329 328 328 328 327 328 328 328 328
306 305 301 300 299 298 297 297 297 297 297 297 300 298 297 297 301 302 301 302 301 301 300 301 300 300 303 306 309 312 316 320 323 324 326 327 327 327 326 325 326 326 327
300 300 299 299 299 297 296 297 296 296 296 297 295 295 296 297 298 300 300 299 300 301 300 300 300 299 298 302 306 310 313 315 318 322 325 325 325 326 324 322 322 324 324
299 300 299 298 297 297 296 296 295 295 295 296 294 293 290 293 295 296 296 298 295 297 297 298 298 299 297 297 302 306 310 312 313 315 317 321 324 324 324 321 320 320 321
298 298 298 298 296 296 295 295 294 294 293 293 293 292 288 286 289 293 293 293 293 294 294 296 297 298 297 297 298 302 306 308 310 312 314 316 320 322 321 319 318 318 319
297 298 297 296 295 295 296 295 294 292 292 288 291 293 291 290 286 286 290 292 292 293 293 293 295 296 297 297 298 300 303 306 307 310 312 314 317 319 318 316 315 315 317
296 296 296 296 296 294 293 292 291 289 290 288 288 288 288 288 288 286 283 286 290 290 292 292 293 294 295 295 295 298 301 302 306 307 310 311 312 314 313 312 313 313 314
295 295 295 294 293 292 291 290 289 289 288 288 288 287 287 285 285 285 283 283 284 288 288 291 292 293 294 294 296 297 299 301 304 305 307 308 308 308 309 310 311 312 315
294 294 293 292 292 291 291 290 288 287 286 285 285 285 286 285 287 286 284 282 282 283 286 288 290 291 292 292 293 296 298 300 303 304 305 306 306 306 306 306 306 308 311
292 292 292 291 290 293 291 292 290 287 286 285 284 283 284 285 285 285 284 282 278 280 281 283 287 290 290 292 294 296 296 299 300 301 303 303 305 305 304 302 302 303 306
293 292 290 292 292 291 290 289 287 288 286 285 285 285 283 284 283 282 283 282 280 276 277 281 283 289 290 292 293 292 292 296 299 299 298 298 299 302 303 302 302 301 301
292 293 293 291 291 290 290 289 286 286 286 285 285 283 282 282 282 281 280 281 281 278 275 281 283 287 289 291 292 291 291 294 296 297 297 297 298 299 301 303 303 301 300
291 291 291 291 288 288 288 285 284 284 284 283 281 281 281 281 280 280 280 279 279 279 276 279 283 285 285 288 289 291 291 290 290 294 295 296 295 295 297 298 299 301 300
288 289 289 289 288 287 285 283 283 283 282 281 281 280 280 281 279 278 278 278 278 279 278 277 280 282 284 286 287 288 289 289 288 292 293 295 295 295 295 296 296 297 297
287 288 289 287 286 284 284 283 283 282 280 280 280 280 279 279 277 277 277 278 279 281 281 280 280 282 283 284 284 287 286 286 287 290 290 290 293 294 294 295 296 296 296
288 287 286 286 284 284 283 283 281 280 280 280 280 280 279 279 278 278 278 278 279 278 279 280 280 280 281 283 282 281 281 283 283 285 288 288 289 292 293 294 295 295 295
289 286 286 283 282 283 282 281 280 280 279 279 279 280 280 281 283 282 280 278 278 278 278 278 278 279 280 279 278 280 279 280 281 283 284 285 285 286 289 292 294 295 295
286 283 280 281 281 282 285 286 285 281 280 279 280 280 280 280 280 281 280 280 280 277 277 277 277 277 279 280 280 279 278 277 277 282 283 282 285 284 285 288 292 293 293
284 283 281 281 280 282 286 285 283 279 278 278 277 276 277 278 278 278 278 279 280 281 281 280 278 278 279 280 280 278 277 277 277 280 282 280 282 282 284 285 290 292 291
284 279 280 280 280 281 283 283 281 277 277 276 276 276 275 276 277 278 278 279 278 279 280 279 279 279 280 281 280 280 279 278 279 280 282 278 280 281 283 285 288 290 291
281 281 281 279 278 278 281 281 279 276 275 275 276 276 276 276 278 280 278 277 277 278 280 281 281 281 281 282 282 280 277 277 276 278 280 280 279 279 279 282 284 288 290
280 280 279 277 278 276 279 279 278 274 271 274 275 276 277 277 279 279 278 276 274 277 278 279 279 279 280 279 281 280 279 277 278 276 279 279 279 279 278 279 280 282 283

GFSMA_sfc_thetae_003.txt.gz
Theta_e
330 327 324 322 321 321 319 319 320 318 316 315 315 313 312 311 312 312 314 318 319 322 325 327 328 328 329 330 332 333 334 333 331 329 331 332 333 333 332 332 332 331 331
326 319 317 316 316 317 316 316 314 312 311 310 310 311 310 310 310 315 315 317 314 315 317 319 321 323 325 325 325 326 329 332 331 330 330 330 331 331 331 331 330 331 332
317 315 316 314 314 314 313 312 310 311 309 307 307 307 308 309 309 314 313 313 312 310 311 312 313 314 315 317 319 322 323 327 329 331 330 330 330 330 331 330 330 330 330
315 315 313 312 311 310 310 310 309 308 307 306 305 306 306 307 313 313 311 311 310 309 310 308 308 308 310 312 313 315 318 321 323 328 329 329 330 329 330 329 329 329 329
311 313 311 310 310 309 308 307 306 305 304 304 302 305 304 305 312 311 310 309 309 309 308 307 306 306 306 308 309 312 314 316 320 322 327 329 328 328 329 328 328 328 328
310 311 310 310 309 308 307 306 304 304 305 304 301 302 303 306 312 310 308 307 307 307 307 306 306 305 305 305 306 309 312 314 315 317 321 326 328 329 328 328 327 326 326
309 310 308 308 308 307 307 306 304 302 302 304 301 300 300 306 308 307 306 305 304 304 305 304 304 303 303 304 304 306 308 311 313 314 315 318 323 326 327 326 324 323 324
307 307 308 308 308 307 307 306 303 300 302 303 297 296 294 296 301 303 302 301 302 302 302 302 302 301 302 302 303 304 304 307 309 312 313 314 316 322 325 325 322 321 322
307 307 308 308 308 307 306 305 303 300 298 300 300 295 291 290 294 298 298 299 299 298 299 299 299 299 300 301 302 302 301 302 304 308 311 313 314 317 322 324 323 321 320
307 306 307 307 307 307 304 303 301 300 298 294 296 297 296 294 288 287 293 294 295 294 295 297 296 297 299 300 301 301 300 301 301 304 309 311 314 314 319 321 321 319 319
305 305 305 305 305 304 303 302 300 297 296 293 292 292 291 291 291 288 284 287 290 292 293 292 295 295 296 297 299 299 300 300 301 303 308 310 312 313 317 319 319 317 317
305 305 304 304 304 303 301 299 298 295 294 293 293 291 289 287 286 287 285 286 286 288 290 292 292 293 293 295 297 297 298 299 300 302 306 307 309 311 311 314 315 315 315
301 303 303 302 302 300 298 299 297 295 294 292 291 290 291 290 290 289 287 285 285 287 288 290 291 291 291 294 297 297 297 297 298 302 304 305 306 308 308 309 310 313 315
298 301 302 300 299 298 298 297 296 295 295 293 292 292 291 291 292 291 288 286 283 284 286 287 290 290 292 293 294 297 297 297 297 300 301 303 303 305 306 305 304 305 307
299 300 299 299 298 298 297 297 295 294 294 293 293 293 292 292 291 289 289 288 285 281 281 285 285 289 290 291 293 295 298 295 295 298 299 299 299 301 303 304 302 301 301
299 299 298 297 297 298 296 295 294 293 292 293 292 292 290 289 289 289 288 287 286 283 279 284 285 287 288 289 291 293 296 294 294 295 295 298 298 298 301 301 303 303 300
298 297 297 297 296 295 294 294 293 292 291 292 291 289 288 288 287 287 286 286 284 284 280 283 284 287 287 288 289 293 294 294 294 292 293 296 296 296 298 299 298 299 301
295 295 295 295 295 294 293 292 291 291 290 289 289 287 287 286 286 286 285 284 284 284 282 279 283 284 286 288 289 290 292 292 293 292 291 292 294 295 295 296 296 296 297
294 295 295 293 292 292 291 290 290 289 288 288 287 286 286 285 285 285 284 283 282 282 282 281 280 283 284 287 287 289 290 291 290 290 291 290 291 293 295 295 296 296 296
294 294 293 293 292 289 289 289 288 288 287 286 286 286 285 285 284 283 283 283 283 281 280 279 279 280 282 285 286 286 286 289 288 288 289 288 289 291 293 295 295 296 296
294 293 292 288 288 288 287 288 287 287 287 286 286 285 284 283 283 282 281 281 280 279 279 279 278 279 280 281 282 284 285 286 287 288 288 289 290 291 292 295 296 295 295
294 290 290 288 287 286 286 286 286 285 283 282 281 281 281 280 281 280 280 280 280 278 278 278 279 278 279 281 282 282 282 283 282 289 287 287 289 289 290 291 291 293 294
293 292 288 287 287 287 284 283 282 282 281 281 280 279 279 279 279 280 280 280 281 281 281 280 279 279 280 281 282 282 281 281 281 285 285 283 288 286 289 288 289 292 292
291 290 287 286 286 284 282 282 281 282 281 280 279 279 278 279 279 279 280 280 279 280 281 281 281 281 282 283 282 282 282 282 283 284 285 281 286 285 288 289 289 289 291
289 288 287 285 283 282 281 280 280 281 279 279 279 279 279 278 279 280 279 278 278 279 281 281 282 282 282 282 282 282 281 280 279 281 284 282 283 284 286 287 290 288 289
285 286 283 282 279 281 279 279 280 280 278 279 279 279 278 278 278 279 278 278 276 278 278 279 280 281 282 282 281 282 281 279 280 279 283 282 282 283 282 288 288 290 291

GFSMA_sfc_thetae_006.txt.gz
Theta_e
330 330 330 328 326 326 324 323 321 319 318 317 318 317 316 316 315 316 318 317 318 320 322 323 323 323 324 324 325 326 328 330 332 331 331 332 332 333 332 332 331 331 332
326 327 324 322 323 323 322 319 317 315 315 315 314 315 314 314 313 316 315 316 314 314 315 316 317 317 318 318 318 320 323 324 327 329 331 330 331 331 331 331 331 331 331
324 322 320 321 321 320 318 317 315 315 313 313 313 312 313 313 312 315 315 314 314 311 311 311 311 312 313 313 314 315 317 319 321 324 327 330 329 330 330 331 331 330 331
320 320 318 316 314 314 314 314 313 312 311 311 310 310 311 311 311 315 314 314 313 312 311 308 307 307 309 310 311 312 313 315 317 319 322 327 329 329 330 330 330 329 329
315 317 316 316 316 315 314 312 311 310 308 308 308 308 309 309 310 310 312 313 313 312 312 310 309 306 306 307 308 309 311 312 313 316 317 319 323 327 328 329 329 328 328
315 318 316 315 313 312 311 310 309 310 308 308 306 306 309 308 308 310 310 310 310 309 309 309 309 308 308 306 306 307 309 310 310 312 314 315 317 320 325 328 328 328 326
313 313 313 313 312 311 311 311 309 308 307 308 304 303 303 304 306 307 308 306 306 307 306 306 305 304 304 306 305 306 308 308 308 308 309 312 314 315 319 323 327 326 324
311 311 313 312 312 310 311 310 308 305 304 306 301 299 296 298 301 304 304 303 304 304 302 302 302 302 302 302 303 304 305 306 306 306 306 308 311 313 316 319 324 326 324
311 311 311 311 311 310 308 308 307 304 301 302 302 298 294 292 295 299 300 299 301 299 299 299 299 299 299 300 300 302 303 301 303 304 304 306 308 311 314 317 322 324 324
311 310 310 311 310 309 307 307 305 304 301 297 299 299 298 296 291 290 296 297 297 296 297 296 298 297 297 297 298 300 301 299 299 301 303 304 307 310 312 314 319 322 323
310 309 309 309 308 307 307 306 304 301 300 298 297 296 296 294 294 290 287 290 294 295 295 295 295 296 296 296 296 297 299 299 299 299 302 304 306 308 310 313 315 321 321
301 303 303 307 308 308 307 305 304 300 299 297 296 294 292 291 290 289 288 289 289 291 293 294 294 294 295 295 295 297 298 298 298 298 300 304 305 307 309 312 315 319 320
299 300 302 304 306 307 305 303 301 299 298 296 294 293 293 292 292 291 289 288 287 290 291 293 294 294 293 295 296 296 295 296 297 297 300 302 303 305 307 309 310 314 317
300 303 304 306 306 304 300 300 301 299 297 296 294 294 293 293 293 292 290 288 285 287 289 289 292 292 293 293 293 294 294 297 296 295 297 301 302 303 305 306 306 306 309
300 302 305 304 303 301 300 300 299 297 296 295 295 294 293 293 293 292 291 290 287 284 284 287 287 292 292 292 292 293 293 294 295 294 295 297 299 300 302 303 305 303 303
300 301 302 302 300 300 300 299 297 296 294 294 294 293 292 292 292 292 291 290 289 286 284 287 288 290 291 290 292 293 293 294 295 293 293 296 297 298 299 301 303 304 304
299 299 300 300 299 298 298 297 295 294 293 293 293 292 291 291 291 290 290 289 288 287 284 286 288 289 288 289 290 291 293 293 295 292 292 293 294 295 296 298 299 300 301
298 298 298 298 298 297 297 295 293 293 293 292 292 291 290 290 290 290 289 288 287 287 284 282 285 285 286 287 288 289 289 291 295 294 292 292 293 294 295 296 297 297 297
298 298 298 297 296 295 294 293 294 293 292 292 291 290 290 289 288 288 288 287 286 285 286 284 282 284 285 286 286 288 288 291 292 293 291 291 291 293 294 295 296 296 296
297 297 297 297 296 294 293 293 292 292 292 291 291 290 289 288 287 286 285 284 284 283 283 282 281 281 283 285 286 285 286 289 290 291 291 289 289 291 293 294 295 296 296
297 297 295 294 294 293 291 291 291 292 291 289 289 287 287 285 282 282 282 283 282 281 280 279 280 281 281 281 282 284 284 286 288 291 289 289 290 292 294 295 294 295 295
296 296 296 295 294 292 286 285 285 288 288 287 285 285 285 283 283 281 281 281 281 280 279 279 279 279 280 282 284 283 284 283 282 289 289 287 290 290 292 293 291 291 291
295 295 295 294 293 292 284 283 282 287 287 285 284 284 283 283 282 283 282 281 282 282 281 281 279 279 281 282 283 282 282 283 283 285 286 284 288 288 291 290 290 291 291
294 293 293 293 292 289 282 281 281 286 286 285 284 283 283 283 283 280 281 281 282 282 282 282 282 282 283 284 284 283 283 283 285 285 287 282 287 286 289 291 290 289 290
293 293 292 292 290 288 281 280 281 285 284 283 283 283 282 281 280 279 280 279 280 281 283 282 282 282 282 283 283 283 281 280 281 282 286 284 285 285 287 289 291 289 288
292 291 290 290 283 286 280 279 281 285 283 283 283 282 280 279 278 279 279 279 278 279 279 280 281 282 282 283 282 283 281 279 280 281 285 283 283 284 283 288 290 291 291

GFSMA_sfc_thetae_009.txt.gz
Theta_e
331 329 328 327 329 326 325 325 323 320 318 318 317 316 315 316 316 314 316 320 320 319 319 320 321 321 320 319 320 321 323 325 326 328 331 332 332 332 332 332 332 331 331
330 328 327 326 324 324 323 321 318 316 315 316 315 316 314 314 315 315 314 317 318 317 316 315 316 317 317 316 316 317 318 319 320 323 325 329 330 331 331 330 331 331 331
331 328 322 322 323 320 318 317 316 315 314 314 314 313 313 313 313 313 314 315 315 314 313 312 311 311 312 314 314 314 314 315 317 318 319 321 325 329 330 330 330 330 330
320 321 320 319 317 318 317 316 315 313 313 311 311 311 311 311 311 313 312 313 314 313 312 309 308 307 307 309 310 311 312 313 313 314 316 317 318 321 325 328 329 329 329
318 320 319 319 318 316 315 314 313 312 311 310 310 310 311 310 311 309 308 312 314 312 311 313 312 312 305 307 308 309 310 310 311 311 313 313 315 316 317 320 325 329 329
317 318 318 317 315 314 314 314 313 313 311 310 307 307 309 307 307 307 308 309 309 309 309 308 307 307 310 308 306 307 309 310 310 309 310 310 310 312 314 316 318 322 328
315 315 315 315 315 313 313 313 312 310 308 308 304 304 303 306 307 305 306 307 306 305 306 305 304 303 303 306 304 305 307 308 308 308 307 307 308 308 310 313 316 320 324
315 314 314 313 313 311 312 311 310 307 305 305 301 300 295 297 300 303 302 302 305 303 302 302 301 300 301 300 301 302 303 305 305 305 305 305 306 307 308 310 312 316 320
314 313 313 312 311 310 307 309 307 306 301 302 303 298 293 291 294 298 299 300 303 300 300 299 299 298 299 298 299 299 301 300 301 302 302 304 305 305 307 309 310 313 316
311 309 308 308 309 308 307 306 306 305 303 299 300 300 300 297 291 290 295 296 297 297 300 298 297 297 297 297 299 299 299 298 298 300 302 302 304 305 306 308 309 311 314
304 303 303 304 306 306 307 307 306 305 302 300 298 297 296 295 294 291 288 290 293 295 296 297 296 296 296 296 296 297 298 300 297 297 300 301 303 304 305 307 308 310 312
301 302 302 303 304 304 306 306 305 303 301 300 298 296 293 291 290 290 288 289 290 292 294 295 296 296 297 296 296 298 298 296 295 296 298 299 302 305 305 306 307 310 312
300 301 303 304 304 305 306 304 302 301 300 298 297 295 294 293 293 292 290 288 288 290 291 294 295 296 294 296 295 296 295 294 295 297 297 297 300 303 302 304 306 308 310
300 301 303 304 304 304 303 302 301 301 300 298 296 295 294 293 293 292 290 289 287 287 289 290 294 294 294 294 295 295 293 294 294 296 295 295 298 301 301 302 303 305 307
299 300 302 303 304 303 302 302 300 299 298 297 296 295 294 293 293 292 292 290 288 284 284 288 289 292 293 294 294 294 294 294 295 294 294 294 297 298 299 299 300 303 305
300 300 300 301 301 301 301 300 298 298 296 296 294 294 293 293 293 292 291 291 290 288 285 288 289 291 292 290 292 292 292 294 293 294 293 292 294 295 296 298 299 301 302
299 298 298 299 299 298 299 298 297 297 295 294 294 293 292 292 291 291 291 291 289 289 286 288 289 290 289 289 289 290 291 292 293 294 292 292 292 293 294 296 297 298 299
298 298 298 298 297 297 297 295 295 294 294 293 293 292 291 291 290 290 290 288 288 288 287 284 286 287 286 287 288 288 289 289 292 292 293 292 293 292 293 294 295 296 297
297 298 298 297 296 297 296 296 294 294 293 293 292 291 291 290 288 288 288 287 287 286 286 284 283 285 286 287 286 287 287 289 290 293 291 291 293 292 293 294 296 296 296
297 297 297 297 296 295 294 293 293 293 293 292 292 291 289 288 287 286 284 284 284 283 283 282 282 282 283 285 285 284 285 288 288 290 291 292 291 292 293 294 294 294 295
297 297 296 296 296 295 293 292 292 292 291 290 290 289 288 286 283 283 282 282 282 281 280 280 279 280 281 282 281 283 283 285 287 289 289 291 291 292 293 293 294 292 291
296 296 295 295 295 294 286 285 284 289 289 289 288 287 287 287 286 284 283 282 282 280 280 279 279 278 280 281 283 283 283 282 280 289 286 287 291 290 291 292 292 291 290
296 295 295 294 294 294 286 283 282 286 288 288 287 286 285 285 284 284 283 283 283 284 283 282 280 280 281 282 282 282 282 282 282 285 285 283 288 287 290 290 290 291 290
295 294 294 294 293 289 284 282 282 286 288 287 286 285 285 284 283 281 280 280 281 282 283 282 282 282 282 282 282 282 281 282 283 285 286 281 287 286 289 291 290 289 290
295 294 294 292 292 289 283 282 281 287 287 286 285 285 284 282 281 280 279 279 279 281 283 284 283 282 283 283 283 283 281 279 280 281 285 284 285 286 288 289 291 289 289
294 294 292 292 285 290 282 281 281 286 285 284 285 285 282 280 279 279 279 278 277 279 278 279 280 281 283 283 284 283 282 279 279 280 284 283 284 284 282 288 290 292 291

GFSMA_sfc_thetae_012.txt.gz
Theta_e
327 326 325 324 325 325 322 318 315 314 313 312 312 312 311 310 311 311 310 319 321 319 317 319 320 320 319 318 318 318 319 320 321 322 323 325 328 330 330 330 331 330 331
327 325 324 319 320 317 316 315 314 312 312 311 311 312 311 310 310 311 309 312 318 320 317 317 316 315 315 315 315 315 316 316 317 317 318 320 321 323 325 328 329 330 330
323 319 317 319 316 316 315 313 312 310 309 310 309 309 309 308 308 309 309 308 313 317 316 313 312 311 311 311 311 312 312 313 315 315 315 316 317 318 319 322 323 328 330
318 318 317 316 315 314 312 311 310 309 308 307 307 306 307 306 305 306 308 306 306 310 313 313 310 310 308 309 310 310 311 311 311 312 312 313 313 313 314 316 318 321 326
318 317 316 316 314 313 312 311 310 309 307 306 307 304 304 303 303 304 303 304 305 308 307 314 314 312 309 308 308 308 310 310 311 311 310 311 311 311 311 312 314 317 320
317 315 315 313 312 311 310 310 309 308 307 305 304 302 301 301 301 302 301 303 302 303 303 303 302 301 307 305 305 306 308 309 309 310 309 309 309 309 309 309 311 313 316
314 313 312 312 312 309 309 308 307 305 304 303 298 297 298 298 297 298 297 297 298 299 302 301 298 296 297 303 302 304 305 306 307 306 306 306 306 306 307 308 309 310 312
313 311 311 309 309 307 307 306 303 302 301 301 295 295 291 293 295 296 296 296 294 297 298 297 297 296 295 294 296 301 302 302 302 302 303 303 304 305 306 307 308 309 311
311 309 308 307 307 306 304 303 302 301 298 298 298 293 289 287 290 293 293 293 294 294 294 295 295 295 294 293 295 296 300 298 298 300 301 301 302 304 305 306 307 308 309
304 302 302 303 302 304 303 303 302 301 299 295 296 298 294 291 287 285 289 290 291 292 292 293 292 293 293 292 297 300 299 299 297 297 299 300 301 303 303 305 306 307 308
302 302 301 302 301 301 301 303 303 301 299 296 293 292 291 290 289 285 283 285 289 290 291 291 291 291 293 293 292 294 299 297 296 296 297 298 300 301 302 305 306 306 307
300 301 302 301 302 302 301 302 300 298 297 295 295 294 291 288 286 285 284 284 285 287 289 290 290 290 291 291 294 298 297 296 296 295 296 297 299 299 301 304 305 305 307
298 299 299 300 301 302 302 300 298 297 296 294 294 292 291 290 289 288 286 285 284 286 286 288 289 290 291 289 290 297 296 296 296 296 295 296 296 297 299 301 303 304 305
297 298 299 300 301 301 299 299 298 297 297 295 292 292 290 291 290 288 286 284 282 283 285 284 288 288 288 289 292 296 290 294 294 295 295 294 295 296 297 300 301 301 302
297 298 298 298 300 299 299 298 297 296 294 294 291 293 290 289 289 288 287 286 283 279 281 284 285 287 288 288 289 289 288 292 293 293 293 295 295 295 297 298 299 299 300
297 297 297 297 297 298 299 297 296 296 293 292 293 291 290 290 289 289 286 287 286 284 280 284 285 286 287 288 289 288 287 291 291 292 292 294 294 293 293 295 296 297 299
297 296 297 296 296 296 296 294 294 293 293 291 293 290 290 291 287 287 287 286 285 284 281 283 285 285 284 285 286 286 287 286 287 291 293 293 293 294 294 293 295 296 297
297 296 296 296 296 296 294 294 292 292 291 290 290 290 289 290 286 286 285 284 284 283 281 279 282 282 282 284 284 284 286 287 286 290 292 293 293 293 293 293 293 296 296
295 295 296 296 295 295 294 294 293 292 291 290 290 288 288 287 283 283 282 281 281 283 281 279 279 281 281 282 282 283 284 285 287 290 291 292 292 292 293 293 294 295 295
295 295 296 296 295 294 293 293 291 290 290 290 289 288 286 284 281 280 280 279 280 278 279 278 278 278 279 280 281 281 280 283 283 287 289 290 290 291 293 293 293 292 293
295 295 295 295 294 294 293 289 289 288 287 286 286 287 285 285 285 282 280 278 278 277 277 277 277 277 277 277 277 280 279 281 282 284 285 286 287 288 289 291 293 291 291
295 294 293 294 293 294 287 286 286 284 286 285 284 284 284 286 285 284 285 284 282 277 276 276 276 276 277 278 280 280 278 278 277 283 283 282 287 286 289 291 292 290 290
294 294 293 292 291 288 287 285 283 282 284 284 283 282 282 284 283 280 281 281 281 283 283 280 278 278 279 278 279 277 276 277 277 280 280 279 284 284 287 290 291 291 290
293 293 292 292 291 288 286 285 283 281 283 284 282 282 281 280 278 279 277 277 278 279 279 281 277 277 278 279 279 279 278 278 279 280 280 276 282 281 284 286 290 291 290
292 292 293 291 290 284 285 284 282 281 283 282 283 283 281 279 280 280 277 277 276 277 282 281 280 281 283 284 283 280 277 277 275 277 280 279 279 281 280 281 282 290 291
292 292 291 290 287 283 284 283 281 280 281 281 281 281 282 279 280 280 276 275 274 276 276 276 277 280 281 281 284 283 280 277 276 275 279 279 280 281 276 278 280 280 281

GFSMA_sfc_thetae_015.txt.gz
Theta_e
321 321 319 318 315 313 312 311 311 309 308 309 308 309 308 307 307 307 309 320 320 319 317 319 319 318 317 316 315 315 316 316 317 318 317 318 319 320 321 322 323 326 329
322 317 314 314 311 311 310 309 307 306 306 306 306 307 306 305 304 304 305 307 319 320 318 317 314 314 313 313 312 312 312 313 313 314 315 315 315 315 316 317 320 321 323
315 312 313 311 309 309 307 307 306 307 306 307 305 306 305 303 303 302 303 304 311 317 317 313 311 310 311 311 311 310 310 310 311 312 312 312 313 313 313 313 315 317 320
313 312 310 309 309 309 308 307 306 305 305 304 303 302 301 301 301 300 301 301 302 309 314 315 313 310 309 309 309 309 309 310 310 310 310 311 311 310 311 311 312 313 315
312 311 310 309 308 307 307 307 305 304 303 302 301 298 298 298 298 301 297 297 299 300 304 312 311 310 305 306 306 307 308 308 309 309 309 309 308 308 308 309 310 310 312
310 309 309 308 308 306 305 304 303 303 303 300 301 298 296 296 296 295 295 297 296 296 298 298 298 300 305 303 303 304 305 306 306 307 307 306 306 306 306 307 308 309 310
309 307 306 305 305 303 303 303 302 299 298 298 294 293 294 294 294 293 294 293 294 295 296 295 297 296 296 301 300 301 302 303 304 303 303 303 303 303 304 305 306 307 309
307 307 304 303 303 302 301 300 298 297 297 296 292 291 288 290 292 293 291 292 290 292 294 295 294 293 292 291 294 298 298 299 299 300 301 301 301 302 303 304 305 306 307
299 298 299 298 297 298 299 298 298 297 294 295 294 291 286 284 286 289 289 289 289 289 290 291 292 292 291 291 293 295 299 298 298 298 299 299 300 301 302 303 304 305 306
298 297 298 297 296 297 295 297 300 297 295 291 292 294 290 288 283 282 286 287 288 289 288 289 290 291 291 290 294 297 300 296 294 296 298 299 299 300 300 302 302 303 306
297 298 298 296 297 297 297 297 296 295 294 292 291 289 288 287 285 283 280 283 286 287 288 288 288 289 290 289 288 291 299 297 296 295 296 297 298 299 300 301 301 302 305
296 297 297 297 297 297 297 296 295 295 293 292 293 291 288 285 284 283 281 281 282 285 286 287 287 288 288 288 293 297 298 297 296 294 295 296 297 297 298 300 300 301 303
294 293 295 295 296 298 297 296 295 294 293 292 291 289 289 288 287 286 283 281 281 282 283 285 286 287 289 287 288 294 293 294 294 293 294 294 295 295 296 298 298 300 302
293 293 294 295 296 298 296 296 294 294 294 292 291 289 289 288 288 286 284 281 279 280 281 282 285 286 287 286 289 292 288 291 292 293 292 292 293 294 295 296 297 298 300
295 293 293 294 294 296 296 296 294 293 292 290 289 288 290 287 286 286 285 284 281 278 279 281 281 285 285 285 287 286 286 290 292 292 291 292 292 293 294 295 296 296 298
293 293 293 293 293 293 293 295 293 292 291 292 290 290 290 289 289 287 284 285 283 280 276 281 281 282 283 286 287 286 286 290 289 290 291 292 292 293 293 293 294 295 295
295 293 293 293 293 292 292 290 290 290 290 289 289 289 288 289 286 285 284 282 281 280 276 279 281 282 281 281 283 284 285 284 285 289 291 291 292 292 293 294 294 294 294
293 293 293 293 294 293 292 292 291 290 289 289 289 288 287 289 284 282 281 279 278 278 277 276 278 279 279 280 281 281 283 286 285 288 290 290 291 292 292 292 293 294 294
292 294 293 293 293 293 292 292 291 290 289 289 289 287 286 284 280 279 278 278 277 280 277 275 276 278 278 279 279 281 282 282 284 288 288 289 290 291 290 291 292 293 294
293 293 293 294 294 293 292 291 290 288 288 287 287 286 284 282 280 278 279 277 278 276 276 275 276 276 277 279 278 277 278 281 281 284 286 288 288 290 289 291 291 293 292
293 293 293 293 293 293 292 289 287 286 285 285 285 285 283 284 286 281 279 277 277 276 275 275 275 276 276 276 276 279 278 278 279 280 281 282 283 285 287 289 290 292 291
294 293 292 292 292 293 289 289 286 283 284 283 283 282 282 284 284 285 283 283 280 276 275 274 276 275 276 276 279 276 275 275 273 279 278 278 282 282 286 287 289 289 290
293 292 292 292 290 289 288 287 285 281 282 282 282 280 281 283 280 279 279 280 279 281 281 277 275 274 274 276 276 276 275 275 275 278 278 276 279 279 285 287 289 289 291
291 291 291 291 289 288 287 287 284 280 281 282 281 280 279 278 278 278 277 276 276 277 277 278 275 275 276 277 277 278 277 277 277 279 278 275 278 279 283 285 287 290 291
290 289 290 290 287 285 287 285 282 281 281 281 282 281 281 278 280 280 277 276 275 276 280 281 280 281 282 282 282 281 278 278 274 276 278 276 276 276 280 281 281 288 290
290 290 289 288 287 283 286 284 282 278 279 279 280 280 282 278 280 280 277 275 273 275 275 276 276 278 279 279 282 280 279 277 277 276 278 277 278 278 276 278 279 278 278

GFSMA_sfc_thetae_018.txt.gz
Theta_e
318 316 312 311 310 310 309 307 306 305 305 306 306 305 304 303 302 302 303 316 319 319 318 320 318 316 315 314 314 314 313 313 313 314 314 314 315 315 315 315 316 318 320
315 313 311 309 308 307 307 306 305 305 304 304 305 304 303 301 300 300 300 300 315 321 320 317 314 313 313 312 312 311 311 311 312 313 312 312 312 312 312 312 313 314 315
314 312 309 308 308 307 306 306 305 304 304 304 303 303 301 300 299 298 298 301 304 316 317 313 311 310 311 311 310 309 310 310 310 310 310 311 310 310 309 309 310 312 313
312 309 308 306 306 307 306 305 304 303 303 302 299 297 298 298 298 297 296 297 297 304 309 312 311 309 308 308 307 308 308 307 308 308 309 309 309 308 307 307 308 309 311
311 309 307 305 306 305 305 304 303 302 301 299 299 296 297 295 295 296 295 295 295 296 298 307 305 305 303 303 303 304 305 306 306 307 307 306 306 306 305 305 306 307 308
310 307 306 305 304 303 302 301 299 299 299 298 299 296 293 294 293 292 292 294 293 294 295 294 294 298 304 301 301 302 303 303 304 304 303 304 303 304 303 304 305 306 307
306 305 303 303 302 301 300 300 298 297 296 295 292 292 292 292 291 291 291 290 291 292 292 292 292 292 292 299 299 300 301 301 300 300 301 302 301 301 302 302 303 305 306
304 302 301 298 298 299 298 298 297 295 295 294 291 289 286 289 290 290 289 290 287 289 291 291 291 291 290 290 293 300 300 299 299 300 300 299 300 301 301 302 302 303 304
297 298 297 296 295 295 294 294 296 295 293 292 291 290 285 283 284 287 287 287 287 288 288 288 290 290 290 289 292 295 299 297 296 297 298 299 299 300 300 300 301 302 303
297 297 297 296 296 296 294 295 297 294 292 290 290 292 289 288 282 280 285 285 287 288 287 287 288 288 289 288 292 295 299 298 294 295 297 298 299 299 299 300 300 301 303
296 297 296 296 295 297 296 295 294 293 292 290 289 288 287 285 284 282 279 282 284 285 286 286 286 287 288 288 287 290 298 297 295 294 296 297 297 298 298 299 299 300 302
295 295 296 295 295 296 295 294 294 293 292 291 290 289 287 285 283 282 280 280 280 283 285 285 285 286 287 286 291 294 293 293 292 293 294 295 296 297 297 297 298 299 300
292 291 293 293 295 296 296 295 294 293 292 290 290 289 288 287 286 285 282 281 280 281 282 284 285 285 288 285 287 292 291 291 291 292 292 293 293 294 295 295 296 298 299
293 293 294 295 294 296 296 294 293 292 292 291 290 289 288 287 287 285 283 281 279 280 280 281 283 284 284 284 287 291 286 289 290 290 291 291 291 292 293 294 295 296 297
294 295 293 294 293 293 294 294 292 292 291 290 288 288 287 286 286 286 285 284 281 275 277 279 280 283 283 284 285 285 284 288 289 289 289 290 291 291 292 293 294 295 296
294 294 294 293 292 292 292 292 291 290 289 289 289 288 287 288 288 286 284 284 282 279 275 279 279 280 282 284 285 283 283 287 287 288 289 289 290 291 291 292 293 294 294
294 294 294 292 293 292 292 291 290 289 289 288 288 287 287 288 286 284 282 281 279 278 275 277 278 279 278 279 281 281 283 282 283 287 287 289 289 290 291 291 292 292 293
294 294 292 293 293 292 292 291 290 290 289 288 288 288 288 289 284 281 280 278 278 277 276 275 276 277 277 278 279 278 281 284 282 286 287 287 288 289 289 290 290 291 292
293 293 292 292 292 292 292 291 290 290 289 288 289 287 287 285 281 280 279 277 277 279 277 275 275 276 277 278 278 279 279 279 283 285 285 285 288 287 288 289 289 291 292
291 291 292 292 293 293 292 291 289 287 287 287 286 285 284 282 280 279 278 277 277 276 276 275 275 276 276 278 277 276 278 280 279 281 282 283 285 285 286 287 288 290 292
292 293 292 293 293 293 292 290 288 286 285 284 284 284 283 283 286 281 278 277 276 275 275 275 275 275 275 276 275 277 277 277 277 278 278 279 280 281 282 285 288 289 290
294 292 292 292 291 292 291 290 287 284 284 283 282 282 281 284 285 285 283 282 279 275 274 273 274 273 273 274 275 275 275 274 273 278 276 277 279 279 280 282 287 287 288
293 293 292 291 290 290 290 290 288 282 283 282 281 280 281 282 281 279 280 280 278 280 279 275 273 273 273 274 275 275 275 275 275 278 277 276 277 277 280 284 287 288 288
290 289 289 290 289 289 289 288 286 282 282 282 281 280 279 278 278 278 277 276 276 276 277 277 275 275 275 277 278 279 278 279 278 278 278 275 276 276 279 282 286 287 288
290 288 289 289 288 286 288 287 283 280 282 281 281 281 280 278 280 282 278 276 276 276 279 280 281 281 281 281 281 280 276 276 274 276 278 277 275 275 277 277 281 286 287
289 289 288 288 288 285 287 286 283 280 280 279 280 280 282 279 282 281 277 275 273 275 275 276 277 277 278 278 281 278 277 275 275 274 278 278 277 275 274 278 279 279 280

GFSMA_sfc_thetae_021.txt.gz
Theta_e
314 311 309 309 308 307 306 305 304 304 304 304 304 303 301 299 299 299 299 312 318 319 316 319 318 315 315 314 314 313 313 313 314 313 312 312 312 312 311 311 312 313 314
312 310 308 307 306 306 305 304 303 303 303 303 302 301 300 298 297 296 297 300 317 320 319 317 314 313 313 313 311 311 312 312 311 311 311 311 310 309 309 309 309 310 312
312 309 307 306 306 305 304 304 303 303 302 303 299 299 298 296 296 295 295 296 301 313 313 313 311 312 312 311 309 309 310 309 309 309 309 310 309 308 308 307 308 309 309
310 307 305 304 305 305 304 303 302 302 301 299 295 296 295 296 294 294 294 294 296 299 306 308 308 307 306 307 307 307 307 308 307 307 308 308 307 306 306 306 306 306 308
309 306 305 305 304 303 302 302 301 300 298 297 296 294 293 292 292 294 292 293 293 293 293 300 304 305 304 303 304 304 305 305 305 306 306 305 305 304 304 304 304 305 306
308 306 304 303 303 301 300 299 296 296 296 295 296 293 291 291 291 290 290 292 291 291 291 291 292 293 302 301 301 302 303 304 304 303 302 302 302 302 302 303 303 304 304
305 303 302 301 300 299 298 298 296 295 294 293 292 291 290 290 289 288 289 288 289 290 290 290 290 289 291 298 299 301 302 303 303 302 302 302 301 300 301 302 302 303 303
303 302 298 296 296 295 295 295 295 294 294 292 290 288 286 288 288 288 287 288 286 288 288 289 289 289 288 288 293 299 299 300 300 300 300 300 300 300 301 301 301 302 302
297 296 296 295 295 294 293 292 294 294 291 290 290 289 284 283 284 286 286 286 286 287 287 287 288 288 289 287 289 292 297 296 297 298 298 299 299 300 300 300 300 301 301
296 296 296 295 295 295 294 295 296 293 291 289 290 291 287 286 282 281 284 284 286 287 285 286 286 287 288 287 290 293 295 298 296 297 298 298 299 299 299 299 300 300 300
295 295 296 295 296 297 296 295 293 292 292 290 289 288 286 285 283 281 279 281 284 285 285 285 285 285 287 286 285 290 295 294 294 295 296 297 298 298 298 298 299 299 299
293 295 295 295 296 296 297 296 293 292 291 290 289 288 286 284 283 281 279 280 280 283 285 285 285 285 285 285 290 293 293 292 292 293 294 295 296 297 297 297 297 298 299
291 292 292 294 298 299 297 296 293 293 291 290 289 288 287 286 285 284 281 280 280 281 282 284 285 284 286 284 285 290 291 290 290 291 292 293 293 293 294 295 296 297 298
291 292 294 296 298 298 294 294 294 291 292 290 289 288 288 287 286 285 283 281 278 279 281 281 283 283 282 282 286 289 284 288 288 289 290 290 291 292 292 293 294 295 296
293 293 295 295 295 295 294 293 293 291 291 290 288 288 287 286 285 285 284 283 280 276 277 279 279 281 281 282 283 283 282 286 287 287 287 289 290 291 291 292 293 294 294
295 295 294 294 294 293 293 293 291 290 289 288 288 287 286 286 287 286 283 283 282 279 274 278 278 278 280 282 282 281 281 286 286 286 287 288 289 290 290 291 291 292 293
295 295 294 293 293 293 292 290 290 288 288 287 288 287 287 287 285 283 282 280 279 278 275 276 278 278 277 277 279 279 281 280 281 285 287 287 287 287 289 290 290 291 291
295 294 294 293 294 293 292 291 289 289 288 287 287 286 286 288 284 282 280 279 278 277 276 275 275 276 276 277 278 277 280 282 281 284 286 285 285 286 288 288 288 289 289
293 293 292 293 293 293 292 290 289 289 287 287 287 287 286 285 282 280 279 278 277 279 276 275 275 276 276 277 277 278 279 279 282 284 284 284 284 285 286 286 287 287 289
292 292 293 293 293 291 291 291 289 288 287 287 287 286 285 283 281 279 278 277 277 275 276 275 275 275 275 277 276 276 276 278 278 280 281 282 283 285 285 285 286 287 288
292 292 292 293 292 291 291 289 288 286 285 285 284 284 283 283 285 281 278 276 276 275 274 274 273 274 274 274 273 275 274 276 277 278 278 278 280 280 280 283 284 286 288
293 292 293 292 291 292 291 291 288 286 285 283 282 283 283 285 285 286 285 283 279 275 273 272 273 272 273 273 273 273 274 274 274 278 277 277 279 278 280 280 284 286 288
294 294 292 291 290 290 290 291 290 284 283 282 282 282 281 281 282 281 283 282 281 280 280 275 272 273 272 274 275 274 275 276 275 278 277 276 277 277 280 282 284 286 287
291 290 290 289 288 288 289 290 288 282 282 282 281 281 279 279 279 279 277 277 276 277 277 277 275 275 275 276 276 278 278 278 277 278 278 275 276 277 279 280 284 287 288
291 289 288 288 288 286 288 289 285 281 280 280 282 281 280 279 281 283 278 277 276 277 279 281 281 281 281 281 280 276 274 274 273 275 277 277 275 276 278 278 280 285 286
289 288 287 286 287 285 287 288 284 279 280 280 280 280 285 281 282 283 278 276 274 276 276 276 276 278 278 278 280 277 276 274 274 272 277 275 277 278 275 276 278 278 279

GFSMA_sfc_thetae_024.txt.gz
Theta_e
313 309 308 307 306 306 305 304 304 303 303 303 301 300 298 298 297 298 300 319 321 320 318 321 318 317 315 315 314 313 313 314 313 312 313 312 311 311 311 310 310 310 310
309 307 306 306 305 305 304 303 303 302 302 301 300 299 297 296 295 296 297 304 315 317 317 316 315 314 314 313 311 311 312 311 311 310 310 311 311 310 309 308 308 308 309
310 306 306 305 304 304 303 303 303 302 301 299 297 297 296 295 295 295 295 297 302 311 314 313 313 313 312 310 309 309 310 309 309 308 308 309 308 307 306 307 307 307 307
308 306 305 305 304 304 303 302 302 301 298 296 294 294 294 294 293 294 295 295 295 295 301 307 307 306 305 305 305 306 306 306 306 307 307 307 306 306 305 305 305 305 306
308 305 304 304 303 302 301 302 300 300 296 296 295 293 292 291 292 293 292 292 293 292 293 301 302 304 304 304 304 304 304 305 305 305 305 304 303 303 304 303 304 304 304
306 305 304 303 302 300 299 297 296 296 296 295 295 292 290 290 290 290 290 292 291 291 291 292 292 293 300 301 301 302 303 304 304 304 304 303 303 303 302 302 302 303 304
305 303 301 300 299 298 298 297 295 294 293 292 291 290 290 290 289 289 289 289 290 290 291 291 290 290 291 297 299 300 301 302 302 302 303 302 301 301 301 302 302 302 303
302 301 298 297 297 295 294 295 295 294 292 291 290 289 287 289 289 288 288 289 288 289 290 291 290 290 290 290 295 297 298 299 300 300 300 300 300 300 301 301 301 301 302
297 295 295 294 294 293 292 293 294 294 291 291 290 290 286 284 285 287 287 287 287 288 288 289 289 289 290 289 290 292 296 297 298 298 299 299 299 300 300 300 300 301 301
295 295 295 295 295 294 295 296 296 294 293 290 290 290 288 287 285 283 285 286 286 288 287 288 287 288 289 289 290 292 296 296 296 297 298 298 299 299 299 300 300 300 300
295 295 295 296 295 295 295 295 294 292 292 290 289 289 287 286 285 282 281 283 285 286 286 287 287 287 288 288 287 292 294 293 293 294 296 296 297 298 299 299 299 299 299
293 294 295 295 296 296 297 296 295 292 291 291 290 291 288 286 284 282 280 281 281 284 285 287 286 286 286 286 289 291 292 292 292 292 293 295 296 296 297 297 297 297 298
292 292 293 295 296 298 296 296 294 292 291 290 290 290 288 287 286 284 283 282 281 282 283 285 286 285 286 285 286 289 290 289 289 290 291 292 293 293 294 294 295 296 297
293 293 295 297 298 299 297 296 294 293 292 291 289 289 288 287 287 286 284 282 280 280 281 283 284 284 283 283 285 287 284 287 287 288 289 289 290 291 291 292 293 294 295
295 296 296 296 298 298 296 295 295 293 291 290 289 288 287 287 286 286 285 284 281 278 280 281 281 283 282 283 283 284 282 285 287 287 287 288 288 289 290 291 292 292 293
296 295 295 295 294 294 294 294 293 292 290 289 289 287 286 286 286 286 284 284 283 281 278 280 280 281 281 282 282 283 282 285 285 286 286 287 288 288 288 289 289 290 291
296 295 294 294 293 293 293 292 290 289 288 287 287 287 286 287 286 285 283 282 281 280 278 279 279 280 279 279 280 280 281 281 282 285 286 286 286 286 286 287 287 290 290
295 295 294 294 294 293 293 291 289 289 288 286 286 286 286 288 285 284 282 281 280 279 278 276 277 278 278 278 279 278 280 282 282 283 285 285 285 285 285 285 286 287 288
294 294 294 293 293 293 292 291 290 289 287 287 287 286 286 285 284 282 281 279 279 279 278 276 276 278 278 278 278 279 279 280 281 283 283 284 284 285 285 286 286 286 286
293 293 293 293 293 293 292 292 290 288 287 287 286 286 286 284 284 282 280 279 278 277 276 276 276 276 276 278 278 276 276 278 278 280 282 282 284 284 285 285 285 286 286
293 293 293 292 293 292 291 290 289 288 286 285 285 285 284 285 287 283 280 278 277 276 276 275 274 274 274 274 274 275 275 276 277 279 279 280 282 282 282 283 284 285 285
292 291 292 294 293 292 291 291 290 287 286 284 283 282 282 287 287 288 287 283 279 276 275 274 274 273 273 274 275 274 275 275 274 280 279 279 281 280 282 282 283 285 286
294 293 294 292 291 290 290 291 290 286 284 284 283 282 282 282 283 281 285 285 283 282 280 276 274 274 274 275 276 275 276 276 276 278 279 276 280 279 282 282 284 285 287
294 293 292 291 289 289 289 289 289 286 284 283 282 282 281 281 280 280 279 279 278 278 278 278 276 276 276 277 277 278 277 276 277 278 279 274 279 278 281 282 283 285 287
293 292 291 289 289 287 288 288 287 283 281 281 282 282 281 280 282 284 279 277 277 277 280 282 281 281 281 282 281 278 275 274 273 275 278 276 278 278 280 281 282 284 285
291 289 288 288 287 284 287 288 288 280 280 280 280 281 285 281 283 284 280 277 275 277 278 277 277 278 280 279 280 278 276 273 273 273 278 275 277 278 276 281 281 283 283

GFSMA_sfc_thetae_027.txt.gz
Theta_e
321 318 317 316 315 315 315 315 314 313 312 311 309 308 307 307 309 311 317 319 322 321 322 321 319 317 315 314 313 313 313 312 312 311 312 312 311 310 310 309 309 309 309
318 316 316 315 315 315 315 314 314 312 310 309 307 306 305 305 307 311 314 316 316 318 318 317 315 316 315 313 310 310 310 309 309 309 309 309 308 308 307 307 307 307 308
319 317 315 315 314 315 314 314 313 312 309 307 305 304 304 304 305 307 311 312 311 311 314 314 312 310 309 309 308 307 307 307 307 307 308 308 307 306 306 305 305 305 306
318 317 315 315 314 314 314 314 313 310 308 307 305 304 303 303 304 304 305 306 305 306 307 307 307 307 306 306 306 306 306 306 306 306 306 306 305 304 304 303 303 304 304
316 317 316 314 315 313 313 312 311 311 307 305 303 302 302 301 301 301 301 301 301 302 302 302 303 304 303 303 303 303 304 305 305 306 306 305 304 304 303 303 303 303 303
315 316 314 313 312 311 310 309 308 308 308 306 301 300 300 301 300 301 300 299 300 300 300 300 301 300 300 300 300 300 302 304 304 304 305 305 305 304 303 302 302 303 303
314 315 312 311 311 310 309 308 307 305 304 305 302 300 299 299 299 299 300 300 298 299 300 299 300 299 299 297 298 299 300 301 302 302 302 302 302 302 302 302 302 303 302
313 312 311 310 309 308 308 307 307 304 303 303 302 301 297 297 298 297 298 298 299 299 298 298 298 298 299 298 297 297 298 298 299 300 300 301 301 301 301 301 302 302 302
311 309 309 308 306 305 303 305 306 305 300 300 301 301 296 295 297 298 296 297 297 298 298 298 297 296 298 297 296 295 295 297 298 299 299 299 300 300 301 301 301 301 302
306 304 304 305 304 304 304 305 305 304 303 299 300 299 300 299 294 292 296 297 297 296 297 297 297 297 297 296 294 294 296 295 296 297 298 298 298 299 299 300 300 301 301
304 303 304 305 304 305 305 304 302 303 303 299 300 299 299 297 297 293 289 292 295 296 297 296 296 296 295 295 295 294 293 293 293 295 296 297 297 298 298 299 299 299 300
302 303 303 304 305 305 302 301 302 301 299 301 300 299 297 295 294 293 291 291 291 294 295 296 296 295 295 295 291 290 291 291 291 291 292 294 295 295 296 297 297 298 298
301 302 304 304 304 304 304 303 301 301 301 300 300 298 298 297 297 295 293 291 290 293 293 295 295 295 293 293 292 289 289 288 288 289 290 291 292 292 293 294 295 296 297
302 302 303 303 303 302 304 303 301 302 302 300 300 299 299 298 297 296 294 291 289 290 291 291 294 294 293 292 290 288 289 287 287 287 288 289 289 290 291 291 293 294 295
301 301 302 302 300 303 301 303 302 301 301 301 300 300 299 299 298 297 295 293 291 286 287 290 289 292 292 291 289 289 288 286 286 287 287 287 288 289 290 290 291 291 292
300 300 301 298 301 301 301 300 300 301 300 300 299 298 298 297 296 296 294 294 293 290 286 290 289 290 289 288 288 288 286 286 286 285 286 286 287 288 288 289 289 289 290
298 298 296 299 298 297 299 299 299 299 298 298 297 296 296 296 295 295 295 294 292 291 287 288 288 288 287 287 287 286 286 286 286 285 285 285 286 286 286 286 287 287 288
299 297 298 297 298 297 298 297 297 296 296 295 296 295 295 294 295 295 294 292 291 291 288 285 287 286 285 286 285 284 284 285 285 284 284 285 285 285 286 286 286 287 287
297 298 298 297 297 297 297 297 296 296 295 295 296 295 295 295 294 294 293 291 291 288 287 285 284 285 285 285 283 284 284 284 284 284 284 284 284 285 286 286 286 287 287
296 297 298 298 297 296 296 295 296 296 295 295 295 295 295 294 294 294 292 291 289 287 286 284 284 283 284 284 282 281 281 283 282 283 284 284 284 285 285 285 286 286 286
295 295 295 296 296 295 296 296 295 295 295 295 295 294 294 294 292 293 290 290 288 286 285 284 283 282 282 281 280 281 280 281 282 284 284 284 285 286 287 286 286 286 286
294 296 294 296 298 297 292 291 292 295 294 293 293 294 294 291 291 289 287 287 287 286 284 283 282 281 281 281 281 280 280 279 277 284 282 281 285 284 286 287 285 285 285
295 296 297 297 296 297 291 291 290 293 293 293 293 293 292 290 289 290 288 287 285 283 284 285 282 282 281 281 281 280 280 280 279 281 281 279 284 283 286 286 286 285 285
296 296 295 296 296 293 290 290 289 292 293 293 293 293 292 291 289 289 287 287 287 286 285 283 284 284 283 282 282 281 281 281 281 282 282 277 283 282 285 286 286 286 286
295 296 297 294 291 291 291 289 288 291 291 291 292 291 291 291 289 286 286 285 285 284 284 283 283 283 281 281 283 283 280 279 278 279 282 280 281 281 283 285 287 285 285
296 294 291 291 291 294 290 288 288 291 290 290 290 289 286 288 287 285 286 285 283 284 284 283 283 283 283 283 282 283 282 278 278 277 282 278 279 280 278 284 285 287 288

GFSMA_sfc_thetae_030.txt.gz
Theta_e
329 328 326 324 323 323 322 321 320 318 317 317 316 315 313 313 313 313 316 319 321 322 323 321 320 317 315 313 312 313 312 311 310 310 310 310 309 308 307 307 307 308 308
329 325 324 323 321 323 322 321 319 318 317 316 314 313 311 311 312 312 313 316 316 318 317 317 317 317 315 312 310 310 310 309 308 309 309 309 308 308 307 306 306 306 306
327 326 324 323 322 322 321 320 319 317 316 314 311 311 311 311 310 311 313 312 314 312 312 312 311 309 308 308 307 307 308 308 308 308 308 307 307 307 306 305 304 304 304
327 326 324 323 322 321 319 319 318 316 315 314 312 311 312 311 311 310 311 312 312 311 308 307 307 306 306 306 306 306 306 306 306 307 307 307 306 306 304 305 304 304 304
326 326 323 322 322 319 319 318 317 317 312 312 311 309 309 308 308 307 307 308 307 308 307 302 303 303 303 302 302 302 303 305 305 306 306 306 307 307 306 305 304 304 304
325 325 323 322 320 318 317 317 314 313 313 312 305 306 307 307 307 307 306 305 307 307 306 304 305 303 300 300 299 300 301 302 303 303 303 304 304 304 304 304 303 303 304
324 324 322 320 319 317 317 315 312 309 309 311 307 307 306 306 305 305 305 305 304 304 305 304 303 302 302 298 297 298 299 300 301 302 302 302 302 302 303 303 303 303 303
324 323 321 319 318 316 315 313 310 308 309 309 307 306 305 305 304 303 304 303 304 303 302 301 301 300 300 300 299 295 297 298 299 301 300 300 301 301 302 302 303 303 303
323 321 320 318 317 315 311 311 310 307 306 307 308 304 303 300 303 304 303 302 302 302 302 301 300 300 299 300 298 298 296 296 297 298 299 299 299 300 300 301 301 302 302
321 319 318 317 315 311 309 309 308 309 308 305 305 305 306 302 297 296 301 301 302 300 301 301 300 300 300 300 297 295 294 294 295 296 297 298 298 299 299 299 300 301 301
317 316 315 313 311 309 309 308 309 308 309 307 305 306 303 302 301 297 295 297 299 300 300 300 300 299 299 299 299 297 292 292 292 293 294 295 296 296 297 298 298 299 299
311 311 311 311 310 309 308 309 307 307 308 306 306 303 300 299 299 297 295 296 295 298 299 299 299 299 299 299 297 290 292 291 291 291 291 292 293 294 295 296 296 297 297
307 310 310 308 305 306 308 307 305 304 305 306 304 302 303 301 300 298 296 295 294 297 297 298 298 299 297 298 297 291 292 291 289 289 290 290 291 292 293 294 294 295 296
306 308 304 306 306 306 306 304 305 304 307 305 304 304 302 301 300 299 297 295 292 293 295 295 298 298 297 297 295 291 292 292 289 288 288 289 289 290 291 292 292 293 294
308 306 304 304 305 305 304 304 304 306 303 305 305 304 301 300 301 300 299 297 294 289 290 294 293 297 296 296 294 293 292 291 288 287 287 287 288 289 289 290 291 291 292
310 307 304 303 302 302 303 304 305 303 304 303 303 302 301 300 299 299 298 297 296 293 289 294 294 295 295 293 293 292 291 289 289 289 287 287 287 287 288 288 289 289 290
310 305 301 300 300 303 304 303 302 302 300 301 302 300 300 299 298 298 298 297 296 295 291 293 294 295 293 292 292 292 291 290 289 289 287 286 286 286 287 287 287 288 288
304 300 300 300 300 303 302 299 300 298 298 298 299 300 298 297 298 299 298 297 296 296 293 290 293 292 292 292 291 290 288 288 289 289 287 286 286 285 286 286 286 287 287
300 301 299 298 299 298 299 299 298 297 298 299 299 299 298 298 298 298 298 296 296 294 294 291 290 292 291 291 289 289 288 288 288 288 288 287 286 286 286 286 286 287 287
302 300 299 299 298 299 299 297 298 299 301 300 298 299 299 298 298 298 297 297 295 294 294 291 290 289 289 289 288 286 285 287 286 287 288 287 286 286 287 287 287 287 287
302 298 297 297 299 298 300 299 299 298 299 298 299 299 299 298 296 296 296 296 295 293 292 290 289 288 287 286 285 286 284 285 286 287 286 287 287 287 288 288 288 288 287
297 296 297 296 299 299 293 292 293 297 298 297 297 298 298 296 295 292 292 291 292 294 291 290 289 286 286 286 287 285 284 283 281 288 285 284 287 286 288 289 288 287 287
296 295 297 298 297 298 293 292 290 294 296 298 297 297 296 296 294 296 291 289 287 286 287 290 288 287 286 287 286 284 284 283 283 285 285 282 286 285 288 288 288 288 287
297 298 298 298 297 298 292 290 290 293 297 296 296 296 295 295 296 295 295 293 291 292 289 287 288 288 288 288 287 285 284 284 285 286 286 281 285 284 287 288 288 288 286
300 298 297 297 296 298 291 291 292 296 294 294 295 295 295 295 292 291 293 292 292 292 289 288 287 286 284 283 283 284 283 282 282 283 285 283 283 283 285 286 289 288 288
298 297 295 293 291 292 293 291 291 294 292 293 294 294 290 291 290 288 291 291 290 291 290 288 286 285 284 286 283 284 284 282 282 281 285 282 282 282 280 285 286 287 288

GFSMA_sfc_thetae_036.txt.gz
Theta_e
328 327 326 324 321 322 322 321 318 316 315 314 312 310 310 308 308 313 314 321 323 327 325 323 322 319 316 315 315 313 311 310 310 310 310 310 310 310 309 309 307 307 307
328 327 327 326 324 323 322 320 317 315 314 312 310 308 308 308 307 311 311 315 320 322 323 321 321 319 316 313 311 309 309 309 308 308 309 309 309 309 309 308 307 307 307
327 327 324 324 324 323 322 318 315 314 312 310 308 308 308 306 307 307 311 312 313 317 317 315 314 313 311 310 309 308 307 306 306 307 307 308 309 309 309 308 308 308 308
329 328 326 324 324 322 320 316 314 312 311 309 307 306 306 306 306 305 306 307 309 310 313 313 311 310 308 306 304 303 304 304 305 305 306 306 305 305 306 306 306 307 307
330 328 327 325 324 321 319 317 315 313 309 307 307 306 305 305 305 306 304 304 302 305 305 310 309 307 304 303 302 301 302 302 303 303 303 304 304 304 304 304 305 305 305
330 328 328 325 322 320 318 315 313 310 309 308 308 306 306 306 305 304 303 304 303 302 302 301 301 301 305 302 301 300 300 300 301 301 302 303 303 303 303 303 303 304 304
329 327 326 323 321 319 317 317 312 308 305 305 304 304 305 306 305 304 303 302 302 302 301 300 298 297 298 302 300 300 299 297 298 300 301 302 302 301 301 302 302 302 302
327 327 325 322 321 319 317 315 311 307 307 307 304 304 301 301 303 304 302 302 300 301 301 301 299 298 296 296 297 301 299 298 298 298 299 300 300 299 300 300 300 301 301
329 325 325 323 321 320 316 314 311 308 304 305 306 302 299 298 300 302 302 300 300 299 299 300 299 299 298 296 299 299 299 298 297 296 297 298 298 298 298 299 299 299 300
328 326 325 324 322 319 316 313 312 308 306 303 307 308 305 304 297 294 299 300 300 300 299 298 298 298 298 297 301 299 299 296 295 294 295 296 297 297 297 297 298 298 299
328 326 325 322 320 317 314 313 310 308 307 305 303 302 304 305 301 297 293 297 297 298 299 299 297 297 298 296 295 297 297 294 293 293 294 295 296 296 296 296 297 297 298
327 325 322 320 313 311 309 308 309 307 307 306 305 304 304 302 298 296 294 294 295 296 297 297 297 295 296 296 299 298 295 294 293 293 293 293 294 295 295 295 296 296 297
320 317 313 311 311 310 309 308 307 306 305 303 304 305 306 303 301 299 295 292 291 293 295 296 296 295 297 295 295 296 296 295 295 293 292 292 293 293 293 294 294 295 295
317 313 312 311 310 308 306 306 305 304 304 303 303 303 304 302 301 299 296 292 289 291 292 293 296 296 295 295 294 298 292 296 295 294 291 291 292 291 291 292 292 293 293
313 312 311 310 308 306 305 304 303 303 303 303 303 304 301 301 301 299 297 296 292 286 287 291 290 294 294 293 295 292 290 296 295 293 293 293 292 291 291 291 291 291 291
313 312 311 310 306 304 304 304 302 303 303 302 302 301 301 301 300 299 296 295 294 290 286 291 291 292 294 293 295 290 291 296 295 294 294 294 293 291 290 290 290 290 290
314 312 310 307 305 304 304 302 302 302 302 301 300 300 300 301 301 299 296 295 293 292 288 289 291 291 291 291 291 291 292 289 289 294 294 293 293 291 290 289 289 289 289
314 311 309 307 305 303 303 301 301 302 300 299 300 299 299 301 299 299 297 293 292 292 289 286 289 289 290 290 290 288 291 290 287 292 293 293 292 291 290 290 289 289 289
312 310 307 305 302 301 300 300 301 300 299 299 299 298 298 299 298 297 295 293 292 295 292 290 289 289 289 289 288 288 288 286 289 293 293 292 292 291 291 291 290 290 290
302 301 302 302 301 301 300 300 301 299 298 299 299 298 298 299 295 295 295 295 294 292 293 292 291 290 288 289 287 285 283 285 284 288 289 289 290 291 292 292 291 291 291
302 301 300 300 299 299 300 298 299 298 297 296 297 299 299 298 296 295 295 292 292 292 291 290 289 289 289 286 283 284 282 282 282 283 282 283 283 283 284 288 290 291 291
304 300 299 297 297 298 293 296 297 297 296 296 294 296 297 296 296 294 293 293 292 291 290 289 290 289 289 288 286 284 282 280 278 283 281 280 282 282 283 284 289 288 288
300 297 297 297 297 296 294 293 292 294 293 292 293 294 295 296 295 295 293 291 290 290 290 290 289 289 288 289 287 284 281 281 279 281 281 278 281 282 283 286 289 289 290
296 296 296 297 296 297 293 292 290 291 292 293 293 293 293 294 292 291 290 289 290 291 291 291 289 290 290 291 289 287 284 282 280 280 281 278 280 280 281 282 288 289 288
298 298 298 297 297 294 292 291 291 292 293 292 292 291 290 289 289 289 287 286 287 289 292 291 291 291 291 290 288 286 283 277 274 278 280 279 280 279 279 279 281 288 288
298 298 296 295 293 295 292 290 289 287 285 283 285 287 287 287 287 287 283 282 282 284 286 287 288 289 287 285 287 286 284 279 277 275 280 279 278 277 274 279 279 280 280

GFSMA_sfc_thetae_039.txt.gz
Theta_e
322 322 321 316 316 316 312 315 313 313 311 310 308 306 306 306 309 311 313 323 325 327 325 325 323 320 317 317 314 313 310 310 310 310 310 309 309 310 310 308 307 308 308
324 322 323 319 318 318 318 315 314 312 310 308 305 305 305 304 309 310 312 315 323 325 324 324 321 319 316 314 312 309 309 309 308 308 308 309 309 309 309 309 309 308 308
324 325 322 320 320 318 318 316 313 311 308 308 305 305 304 304 304 308 311 311 314 320 321 322 319 317 314 312 310 308 306 306 306 307 307 307 307 306 306 306 307 307 307
323 323 321 321 320 319 315 312 310 308 306 304 303 303 304 303 303 304 309 309 308 310 315 317 315 313 312 310 307 304 304 304 305 305 305 304 305 305 305 305 305 305 305
324 324 322 322 320 317 315 313 311 309 306 304 303 302 302 302 302 304 302 307 306 305 305 313 313 312 308 305 304 303 302 303 303 303 303 303 304 304 304 303 303 304 304
326 324 323 322 318 316 315 312 310 308 305 304 306 303 301 302 302 300 300 302 301 304 302 302 302 302 308 305 303 302 302 301 301 301 302 303 303 302 302 302 302 302 302
327 323 321 319 318 316 314 311 310 304 302 302 301 300 300 301 301 300 300 299 300 299 299 298 297 296 300 304 303 303 302 300 299 300 300 300 300 300 300 300 301 301 301
326 324 321 317 316 315 314 311 307 303 302 301 299 300 298 299 300 301 300 300 298 298 299 298 297 296 295 295 296 303 303 300 301 299 298 298 299 299 299 299 300 300 300
320 324 321 318 316 316 313 310 306 305 301 302 302 301 297 295 296 299 301 299 297 297 298 298 297 297 296 294 299 301 303 301 301 299 297 297 298 298 299 299 299 299 299
323 324 322 320 318 316 314 311 310 307 305 301 303 306 303 302 295 293 299 299 297 297 296 297 296 297 296 294 299 300 302 301 299 299 297 296 297 297 298 298 298 298 299
325 324 321 319 317 316 314 313 310 307 308 306 304 303 304 304 302 298 293 295 296 297 297 297 296 295 296 295 294 298 301 299 298 297 296 296 296 296 296 297 297 297 297
324 323 322 321 318 310 309 309 309 308 307 307 305 304 304 303 301 299 294 292 294 296 296 296 295 294 294 294 298 300 300 298 297 296 296 295 295 295 296 296 296 296 296
318 321 318 314 310 310 310 310 307 304 305 304 304 305 306 305 305 301 298 291 290 291 294 294 294 294 295 293 295 300 299 297 296 297 296 295 294 294 295 294 294 295 295
322 316 312 311 309 311 308 306 305 304 304 304 303 304 305 305 304 299 296 293 288 288 290 293 296 295 292 292 295 300 295 296 296 297 296 294 294 294 293 292 292 293 293
316 313 311 309 307 305 305 303 303 304 303 303 303 303 303 303 301 299 298 295 290 285 285 290 291 293 293 292 293 295 291 297 296 296 295 295 294 294 293 292 292 292 292
315 312 312 311 309 305 303 304 303 303 303 303 303 302 301 301 300 299 297 294 293 289 285 288 289 290 291 293 293 291 290 296 296 295 294 295 295 295 293 292 292 291 291
313 312 313 310 304 303 304 303 302 303 302 301 301 300 300 300 299 299 297 295 293 292 286 287 289 290 288 289 290 290 290 290 290 295 294 294 294 294 294 293 292 291 291
313 313 311 308 306 304 303 302 301 301 300 300 299 299 299 300 298 298 298 295 292 291 288 286 286 287 288 289 289 287 290 291 289 293 295 294 293 293 293 292 291 291 291
313 310 308 306 304 303 302 301 301 301 300 300 299 298 298 297 296 296 294 293 294 294 291 287 287 287 288 288 289 288 288 287 288 292 293 293 293 293 293 292 292 292 292
308 308 306 304 303 301 301 300 300 299 298 299 299 298 297 297 296 296 294 291 292 290 290 291 292 291 289 290 289 288 287 286 287 288 290 288 290 292 292 293 292 292 292
303 302 301 301 301 300 300 300 300 299 297 297 297 297 298 297 296 294 294 294 293 291 291 291 291 291 290 288 286 290 287 290 284 283 281 282 282 282 283 288 289 291 291
301 300 299 299 298 299 294 295 297 297 296 295 295 294 294 296 295 293 293 292 292 290 288 287 288 287 288 286 287 286 285 283 283 282 280 280 283 281 282 282 287 289 289
296 294 294 293 293 293 293 293 293 294 292 290 289 290 294 295 292 292 289 288 288 289 289 287 286 287 287 288 289 287 283 285 284 283 283 279 281 279 281 285 289 289 289
293 293 293 294 293 293 292 292 290 290 289 291 293 293 289 288 287 286 285 283 284 285 286 287 286 287 287 288 288 289 288 287 283 283 282 280 280 278 280 281 287 289 289
293 292 294 293 293 292 292 290 290 290 292 288 287 286 285 284 287 286 282 280 280 279 283 285 286 286 287 287 288 288 287 283 282 280 281 281 278 278 278 278 280 286 288
294 296 294 295 292 292 290 290 288 282 281 279 281 283 284 283 285 284 280 278 277 278 279 280 281 282 284 284 287 287 287 284 283 278 280 280 277 276 274 277 278 279 278

GFSMA_sfc_thetae_042.txt.gz
Theta_e
318 317 317 315 312 311 310 313 312 311 309 308 306 306 308 307 309 311 313 322 326 327 325 325 322 319 318 317 314 312 311 311 310 310 310 310 311 311 310 310 309 309 308
318 317 317 313 312 313 311 314 311 310 307 305 304 305 305 308 309 310 312 318 324 326 326 324 322 319 317 316 312 310 310 309 308 308 308 308 308 307 307 307 307 307 307
320 320 319 316 315 315 315 313 312 310 307 306 304 303 303 307 308 309 311 312 317 322 323 324 321 319 317 314 311 309 307 306 306 307 306 305 305 305 305 305 305 305 306
323 321 322 319 318 316 316 313 311 307 306 304 302 302 302 302 305 308 309 309 310 312 318 320 320 316 314 313 311 307 305 305 305 305 304 304 304 304 304 304 304 304 304
322 321 319 319 318 315 312 312 308 308 304 302 302 301 301 300 301 307 307 307 307 307 307 316 316 315 314 312 308 305 305 304 304 303 303 303 303 303 303 303 303 303 303
322 322 319 320 317 314 311 310 308 307 305 303 305 302 299 300 300 300 302 307 305 305 304 306 307 307 312 308 307 305 305 304 303 302 302 301 301 300 300 301 301 301 302
324 321 319 319 316 315 314 311 308 305 302 302 299 298 298 299 299 298 298 300 301 303 302 301 300 298 302 310 306 305 305 305 303 302 301 299 298 298 299 300 300 300 301
324 322 320 319 316 314 312 310 307 302 301 300 298 298 296 299 299 299 298 298 297 302 301 299 297 296 297 298 298 306 306 306 304 303 301 299 298 298 298 299 299 300 300
324 324 320 318 316 315 313 310 306 304 301 300 301 300 295 295 297 298 299 299 299 297 297 297 297 297 297 295 300 304 307 306 304 305 302 300 299 298 298 299 299 299 299
323 322 321 319 316 315 312 311 307 304 304 302 304 306 304 302 296 294 297 300 299 297 295 295 296 296 295 294 298 300 304 304 304 304 303 301 299 298 298 298 298 299 299
322 320 320 319 316 315 314 312 306 305 307 306 305 303 304 304 301 299 295 297 298 298 297 296 296 295 295 294 293 297 303 302 303 303 302 301 300 299 298 298 298 298 298
321 321 321 320 318 317 315 312 309 306 306 305 305 305 304 303 302 300 296 296 295 297 296 295 295 294 294 294 296 300 302 301 301 302 301 300 300 299 299 298 297 297 296
317 319 322 320 318 315 314 312 309 308 305 305 304 305 306 304 303 302 299 298 294 293 292 293 295 296 297 293 294 301 303 300 299 300 300 299 299 298 298 297 297 295 295
321 322 322 320 318 312 310 311 308 307 305 305 305 305 305 305 304 302 298 296 291 290 290 293 293 293 293 292 293 301 298 299 298 298 299 299 298 297 297 296 295 294 294
322 320 318 316 313 312 310 308 307 305 305 305 305 305 304 304 304 302 299 297 293 288 289 290 291 293 293 292 293 296 294 299 298 297 297 298 298 297 296 296 294 294 293
316 315 313 312 309 309 307 307 306 304 304 304 304 303 302 302 301 300 299 298 295 292 288 288 289 290 291 292 292 294 294 296 297 296 296 296 296 297 297 296 294 293 293
316 314 311 309 308 307 306 305 304 304 303 302 302 302 301 300 299 299 299 298 296 293 290 288 288 289 288 288 289 292 292 291 292 296 296 295 295 295 295 295 295 294 293
318 315 312 312 308 306 305 303 302 303 302 301 300 299 299 300 298 298 298 296 295 295 292 290 287 286 286 288 287 287 291 291 290 293 296 295 294 294 294 294 293 293 293
318 313 312 310 307 306 304 302 302 301 301 300 300 299 298 298 296 296 296 295 294 293 290 286 289 287 287 288 289 290 289 290 291 294 294 294 294 294 294 293 293 293 293
312 311 309 307 305 303 302 302 301 300 300 299 299 299 298 296 296 295 295 293 293 291 291 290 290 289 289 291 288 290 291 291 289 292 293 292 293 294 294 293 293 293 293
309 308 306 304 302 301 301 300 300 299 298 298 298 297 297 297 296 294 294 293 292 291 291 290 288 288 290 289 288 288 288 289 289 287 288 287 288 288 289 292 292 293 293
304 302 301 300 299 300 294 295 298 298 297 296 295 295 295 295 295 291 289 289 287 284 282 282 282 283 284 284 286 285 286 286 285 288 283 284 284 283 284 285 288 289 290
299 298 298 298 297 298 293 294 294 296 294 293 291 292 293 292 289 288 286 286 285 286 286 282 280 281 282 283 286 286 286 286 285 288 281 284 280 282 284 286 288 289 290
295 292 292 293 293 293 292 292 290 290 289 290 291 289 287 286 286 283 281 280 280 280 280 280 279 279 280 282 282 283 282 282 284 287 284 283 286 283 284 284 288 289 290
292 292 293 292 291 290 291 290 289 288 287 285 286 286 284 282 284 284 280 278 278 279 283 284 284 285 285 285 285 283 280 280 278 281 283 282 284 283 280 280 281 287 289
292 293 291 291 290 288 290 290 290 286 282 281 281 281 282 281 282 282 279 278 277 278 279 279 279 281 283 282 285 283 282 280 280 279 282 280 283 280 278 278 278 278 279